Regional Weather Roundup
Issued by NWS Little Rock, AR

Home | Current Version | Previous Version | Graphics & Text | Print | Product List | Glossary Off
Versions: 1 2 3 4 5 6 7 8 9 10 11 12 13 14 15 16 17 18 19 20 21 22 23 24 25 26 27 28 29

000
ASUS44 KLZK 301305
RWRLZK

WEATHER ROUNDUP FOR ARKANSAS
NATIONAL WEATHER SERVICE LITTLE ROCK AR
800 AM CDT THU OCT 30 2014

NOTE: "FAIR" INDICATES FEW OR NO CLOUDS BELOW 12,000 FEET WITH NO
SIGNIFICANT WEATHER AND/OR OBSTRUCTIONS TO VISIBILITY.

ARZ001-003-010-029-301400-
NORTHWEST ARKANSAS

CITY           SKY/WX    TMP DP  RH WIND       PRES   REMARKS
FAYETTEVILLE   CLEAR     36  36 100 MISG      30.14R
FORT SMITH     CLEAR     45  42  89 E3        30.15R
HARRISON       CLEAR     41  39  93 E5        30.13S
BENTONVILLE    CLEAR     43  36  75 S6        30.12S
ROGERS           N/A    N/A N/A N/A MISG        N/A
SILOAM SPGS    CLEAR     43  34  70 SE6       30.13S
HIGHFILL       CLEAR     42  38  85 CALM      30.12S
SPRINGDALE     CLEAR     43  37  81 CALM      30.15R
$$

ARZ004-005-016-301400-
NORTH CENTRAL ARKANSAS

CITY           SKY/WX    TMP DP  RH WIND       PRES   REMARKS
BATESVILLE     CLEAR     39  37  93 CALM      30.17S
FLIPPIN        CLEAR     36  30  80 CALM      30.14S
MTN HOME       CLEAR     41  39  93 SE5       30.13F
$$

ARZ040-041-301400-
WEST CENTRAL ARKANSAS

CITY           SKY/WX    TMP DP  RH WIND       PRES   REMARKS
MENA             N/A     41  39  93 CALM      30.17
MOUNT IDA      PTCLDY    38  37  97 CALM      30.14R
$$

ARZ009-017-025-026-028-301400-
NORTHEAST ARKANSAS

CITY           SKY/WX    TMP DP  RH WIND       PRES   REMARKS
CORNING        FAIR      39  37  93 CALM      30.18R
JONESBORO      CLEAR     43  39  86 NE3       30.17S
NEWPORT        CLEAR     41  39  92 CALM      30.18S
WALNUT RIDGE   CLEAR     39  36  87 N5        30.16S
BLYTHEVILLE    CLEAR     43  40  89 E3        30.18R
$$

ARZ022-023-033-042-044-301400-
CENTRAL ARKANSAS

CITY           SKY/WX    TMP DP  RH WIND       PRES   REMARKS
LITTLE ROCK    CLEAR     47  43  86 CALM      30.17F
N LITTLE ROCK    N/A     48  46  90 CALM      30.17F
JACKSONVILLE   CLEAR     41  40  94 CALM      30.17S
SEARCY         CLEAR     42  41  96 CALM      30.18S
HOT SPRINGS    LGT RAIN  43  42  97 CALM      30.17S VSB<1/4
RUSSELLVILLE   FOG       41  40  96 CALM      30.15S VSB 1/4
$$

ARZ036-301400-
EAST ARKANSAS

CITY           SKY/WX    TMP DP  RH WIND       PRES   REMARKS
WEST MEMPHIS   CLEAR     43  43 100 CALM      30.17R
$$

ARZ050-053-066-070-073-301400-
SOUTHWEST ARKANSAS

CITY           SKY/WX    TMP DP  RH WIND       PRES   REMARKS
ARKADELPHIA    FOG       42  42 100 CALM      30.18R VSB 1/4
CAMDEN         CLEAR     41  39  93 CALM      30.18S
TEXARKANA      CLEAR     48  47  96 CALM      30.16R
EL DORADO      CLEAR     43  41  93 CALM      30.17R
DE QUEEN       PTCLDY    41  40  96 CALM      30.15R FOG
$$

ARZ056-057-069-301400-
SOUTHEAST ARKANSAS

CITY           SKY/WX    TMP DP  RH WIND       PRES   REMARKS
PINE BLUFF     CLEAR     46  44  93 CALM      30.17S
STUTTGART      CLEAR     46  45  93 CALM      30.18R
MONTICELLO     CLEAR     45  43  93 CALM      30.17R

$$





USA.gov is the U.S. government's official web portal to all federal, state and local government web resources and services.